| time (UTC) | temp F | wind direction | speed MPH | gust MPH | rain 1hr in | rain 24hr in | rain mn in | humidity % | barometer mb |
| 20260902032437 | 79 | 339 | 4.0 | 5.0 | 0.00 | 0.00 | 0.00 | 63 | 1013.5 |
| 20260902031937 | 79 | 353 | 4.0 | 5.0 | 0.00 | 0.00 | 0.00 | 63 | 1013.5 |
| 20260902031437 | 79 | 336 | 4.0 | 6.0 | 0.00 | 0.00 | 0.00 | 62 | 1013.5 |
| 20260902030938 | 80 | 354 | 4.0 | 6.0 | 0.00 | 0.00 | 0.00 | 62 | 1013.5 |
| 20260902030437 | 80 | 348 | 2.0 | 6.0 | 0.00 | 0.00 | 0.00 | 61 | 1013.5 |
| 20260902025937 | 80 | 342 | 4.0 | 6.0 | 0.00 | 0.00 | 0.00 | 62 | 1013.5 |
| 20260902025438 | 80 | 2 | 4.0 | 6.0 | 0.00 | 0.00 | 0.00 | 61 | 1013.5 |
| 20260902024937 | 80 | 348 | 4.0 | 6.0 | 0.00 | 0.00 | 0.00 | 62 | 1013.5 |
| 20260902024437 | 80 | 345 | 4.0 | 6.0 | 0.00 | 0.00 | 0.00 | 60 | 1013.5 |
| 20260902023937 | 80 | 348 | 4.0 | 6.0 | 0.00 | 0.00 | 0.00 | 61 | 1013.5 |
| 20260902023437 | 80 | 353 | 5.0 | 6.0 | 0.00 | 0.00 | 0.00 | 61 | 1013.5 |
| 20260902022937 | 80 | 352 | 5.0 | 7.0 | 0.00 | 0.00 | 0.00 | 61 | 1013.5 |
| 20260902022437 | 81 | 346 | 4.0 | 6.0 | 0.00 | 0.00 | 0.00 | 60 | 1013.5 |
| 20260902021937 | 81 | 359 | 4.0 | 6.0 | 0.00 | 0.00 | 0.00 | 60 | 1013.5 |
| 20260902021437 | 81 | 347 | 5.0 | 6.0 | 0.00 | 0.00 | 0.00 | 60 | 1013.5 |
| 20260902020937 | 82 | 348 | 5.0 | 6.0 | 0.00 | 0.00 | 0.00 | 60 | 1013.5 |
| 20260902020438 | 82 | 328 | 3.0 | 6.0 | 0.00 | 0.00 | 0.00 | 59 | 1013.5 |
| 20260902015937 | 82 | 350 | 5.0 | 7.0 | 0.00 | 0.00 | 0.00 | 59 | 1013.5 |
| 20260902015437 | 82 | 333 | 5.0 | 7.0 | 0.00 | 0.00 | 0.00 | 60 | 1013.5 |
| 20260902014938 | 82 | 355 | 5.0 | 7.0 | 0.00 | 0.00 | 0.00 | 59 | 1013.5 |
| 20260902014438 | 83 | 356 | 6.0 | 7.0 | 0.00 | 0.00 | 0.00 | 59 | 1013.5 |
| 20260902013937 | 83 | 349 | 5.0 | 7.0 | 0.00 | 0.00 | 0.00 | 58 | 1013.5 |
| 20260902013437 | 84 | 344 | 5.0 | 7.0 | 0.00 | 0.00 | 0.00 | 57 | 1013.5 |
| 20260902012939 | 84 | 347 | 5.0 | 6.0 | 0.00 | 0.00 | 0.00 | 56 | 1013.5 |
| 20260902012437 | 84 | 355 | 5.0 | 6.0 | 0.00 | 0.00 | 0.00 | 55 | 1013.5 |
| 20260902011940 | 85 | 351 | 4.0 | 6.0 | 0.00 | 0.00 | 0.00 | 55 | 1013.5 |
| 20260902010437 | 87 | 350 | 6.0 | 9.0 | 0.00 | 0.00 | 0.00 | 52 | 1013.5 |
| 20260902005937 | 88 | 357 | 7.0 | 9.0 | 0.00 | 0.00 | 0.00 | 50 | 1013.5 |
| 20260902005437 | 89 | 348 | 5.0 | 8.0 | 0.00 | 0.00 | 0.00 | 49 | 1013.5 |
| 20260902004937 | 90 | 309 | 6.0 | 9.0 | 0.00 | 0.00 | 0.00 | 47 | 1013.5 |
| 20260902004438 | 91 | 258 | 4.0 | 7.0 | 0.00 | 0.00 | 0.00 | 47 | 1013.5 |
| 20260902003937 | 91 | 244 | 3.0 | 8.0 | 0.00 | 0.00 | 0.00 | 46 | 1013.5 |
| 20260902003438 | 92 | 212 | 3.0 | 7.0 | 0.00 | 0.00 | 0.00 | 45 | 1013.5 |
| 20260902002939 | 92 | 216 | 3.0 | 6.0 | 0.00 | 0.00 | 0.00 | 44 | 1013.5 |
| 20260902002438 | 93 | 174 | 4.0 | 7.0 | 0.00 | 0.00 | 0.00 | 43 | 1013.5 |
| 20260902001939 | 93 | 136 | 4.0 | 7.0 | 0.00 | 0.00 | 0.00 | 42 | 1013.5 |
| 20260902001437 | 93 | 107 | 4.0 | 7.0 | 0.00 | 0.00 | 0.00 | 42 | 1013.5 |
| 20260902000937 | 94 | 319 | 4.0 | 7.0 | 0.00 | 0.00 | 0.00 | 41 | 1013.5 |
| 20260902000437 | 94 | 216 | 3.0 | 6.0 | 0.00 | 0.00 | 0.00 | 42 | 1013.5 |
| 20260901235937 | 94 | 212 | 3.0 | 6.0 | 0.00 | 0.00 | 0.00 | 41 | 1013.5 |
| 20260901235437 | 94 | 336 | 4.0 | 6.0 | 0.00 | 0.00 | 0.00 | 41 | 1013.5 |
| 20260901234938 | 95 | 217 | 3.0 | 7.0 | 0.00 | 0.00 | 0.00 | 41 | 1013.5 |
| 20260901234440 | 95 | 139 | 3.0 | 8.0 | 0.00 | 0.00 | 0.00 | 41 | 1013.5 |
| 20260901233937 | 95 | 86 | 3.0 | 8.0 | 0.00 | 0.00 | 0.00 | 41 | 1013.5 |
| 20260901233437 | 96 | 252 | 3.0 | 6.0 | 0.00 | 0.00 | 0.00 | 40 | 1013.5 |
| 20260901232937 | 96 | 222 | 3.0 | 5.0 | 0.00 | 0.00 | 0.00 | 39 | 1013.5 |
| 20260901232437 | 97 | 167 | 3.0 | 7.0 | 0.00 | 0.00 | 0.00 | 38 | 1013.5 |
| 20260901231938 | 97 | 119 | 4.0 | 7.0 | 0.00 | 0.00 | 0.00 | 38 | 1013.5 |
| 20260901231438 | 97 | 124 | 3.0 | 6.0 | 0.00 | 0.00 | 0.00 | 37 | 1013.5 |
| 20260901230937 | 97 | 165 | 3.0 | 5.0 | 0.00 | 0.00 | 0.00 | 37 | 1013.5 |
| 20260901230437 | 97 | 169 | 3.0 | 6.0 | 0.00 | 0.00 | 0.00 | 37 | 1013.5 |
| 20260901225937 | 97 | 125 | 2.0 | 8.0 | 0.00 | 0.00 | 0.00 | 37 | 1013.5 |
| 20260901225437 | 98 | 194 | 4.0 | 8.0 | 0.00 | 0.00 | 0.00 | 36 | 1013.5 |
| 20260901224937 | 98 | 154 | 3.0 | 6.0 | 0.00 | 0.00 | 0.00 | 37 | 1013.5 |
| 20260901224437 | 97 | 130 | 4.0 | 8.0 | 0.00 | 0.00 | 0.00 | 37 | 1013.5 |
| 20260901223938 | 98 | 145 | 4.0 | 11.0 | 0.00 | 0.00 | 0.00 | 37 | 1013.5 |
| 20260901223437 | 98 | 162 | 2.0 | 7.0 | 0.00 | 0.00 | 0.00 | 36 | 1013.5 |
| 20260901222938 | 99 | 156 | 4.0 | 8.0 | 0.00 | 0.00 | 0.00 | 36 | 1013.5 |
| 20260901222437 | 99 | 79 | 3.0 | 8.0 | 0.00 | 0.00 | 0.00 | 35 | 1013.5 |
| 20260901221937 | 98 | 330 | 4.0 | 7.0 | 0.00 | 0.00 | 0.00 | 36 | 1013.5 |
| 20260901221437 | 98 | 209 | 4.0 | 8.0 | 0.00 | 0.00 | 0.00 | 36 | 1013.5 |
| 20260901220937 | 98 | 197 | 4.0 | 7.0 | 0.00 | 0.00 | 0.00 | 36 | 1013.5 |
| 20260901220437 | 98 | 136 | 4.0 | 8.0 | 0.00 | 0.00 | 0.00 | 36 | 1013.5 |
| 20260901215937 | 98 | 141 | 3.0 | 8.0 | 0.00 | 0.00 | 0.00 | 36 | 1013.5 |
| 20260901215437 | 98 | 139 | 4.0 | 9.0 | 0.00 | 0.00 | 0.00 | 36 | 1013.5 |
| 20260901214937 | 98 | 111 | 3.0 | 9.0 | 0.00 | 0.00 | 0.00 | 36 | 1013.5 |
| 20260901214437 | 98 | 186 | 6.0 | 10.0 | 0.00 | 0.00 | 0.00 | 36 | 1013.5 |
| 20260901213937 | 98 | 173 | 7.0 | 11.0 | 0.00 | 0.00 | 0.00 | 36 | 1013.5 |
| 20260901213438 | 98 | 156 | 6.0 | 12.0 | 0.00 | 0.00 | 0.00 | 37 | 1013.5 |
| 20260901212938 | 98 | 210 | 6.0 | 10.0 | 0.00 | 0.00 | 0.00 | 37 | 1013.5 |
| 20260901212437 | 98 | 169 | 4.0 | 9.0 | 0.00 | 0.00 | 0.00 | 36 | 1013.5 |
| 20260901211937 | 98 | 199 | 5.0 | 9.0 | 0.00 | 0.00 | 0.00 | 35 | 1013.5 |
| 20260901211438 | 98 | 164 | 3.0 | 9.0 | 0.00 | 0.00 | 0.00 | 36 | 1013.5 |
| 20260901210937 | 98 | 142 | 5.0 | 9.0 | 0.00 | 0.00 | 0.00 | 36 | 1013.5 |
| 20260901210438 | 98 | 169 | 7.0 | 10.0 | 0.00 | 0.00 | 0.00 | 36 | 1013.5 |
| 20260901205937 | 99 | 183 | 7.0 | 9.0 | 0.00 | 0.00 | 0.00 | 36 | 1013.5 |
| 20260901205438 | 100 | 186 | 5.0 | 8.0 | 0.00 | 0.00 | 0.00 | 34 | 1013.5 |
| 20260901204937 | 100 | 4 | 4.0 | 6.0 | 0.00 | 0.00 | 0.00 | 33 | 1013.5 |
| 20260901204438 | 99 | 311 | 2.0 | 8.0 | 0.00 | 0.00 | 0.00 | 34 | 1013.5 |
| 20260901203937 | 99 | 196 | 5.0 | 11.0 | 0.00 | 0.00 | 0.00 | 35 | 1013.5 |
| 20260901203438 | 98 | 177 | 6.0 | 11.0 | 0.00 | 0.00 | 0.00 | 35 | 1013.5 |
| 20260901202937 | 98 | 174 | 4.0 | 9.0 | 0.00 | 0.00 | 0.00 | 35 | 1013.5 |
| 20260901202438 | 98 | 160 | 5.0 | 12.0 | 0.00 | 0.00 | 0.00 | 35 | 1013.5 |
| 20260901201937 | 99 | 160 | 9.0 | 12.0 | 0.00 | 0.00 | 0.00 | 34 | 1013.5 |
| 20260901201439 | 98 | 279 | 3.0 | 10.0 | 0.00 | 0.00 | 0.00 | 35 | 1013.5 |
| 20260901200938 | 98 | 166 | 5.0 | 9.0 | 0.00 | 0.00 | 0.00 | 35 | 1013.5 |
| 20260901200437 | 99 | 173 | 4.0 | 10.0 | 0.00 | 0.00 | 0.00 | 35 | 1013.5 |
| 20260901195937 | 98 | 172 | 5.0 | 13.0 | 0.00 | 0.00 | 0.00 | 36 | 1013.5 |
| 20260901195437 | 99 | 184 | 6.0 | 11.0 | 0.00 | 0.00 | 0.00 | 35 | 1013.5 |
| 20260901194938 | 99 | 168 | 4.0 | 8.0 | 0.00 | 0.00 | 0.00 | 34 | 1013.5 |
| 20260901194438 | 99 | 170 | 6.0 | 9.0 | 0.00 | 0.00 | 0.00 | 34 | 1013.5 |
| 20260901193937 | 99 | 208 | 5.0 | 9.0 | 0.00 | 0.00 | 0.00 | 33 | 1013.5 |
| 20260901193439 | 99 | 120 | 4.0 | 8.0 | 0.00 | 0.00 | 0.00 | 34 | 1013.5 |
| 20260901192937 | 99 | 142 | 4.0 | 10.0 | 0.00 | 0.00 | 0.00 | 35 | 1013.5 |
| 20260901192437 | 99 | 160 | 6.0 | 10.0 | 0.00 | 0.00 | 0.00 | 34 | 1013.5 |
| 20260901191938 | 98 | 278 | 1.0 | 8.0 | 0.00 | 0.00 | 0.00 | 35 | 1013.5 |
| 20260901191438 | 99 | 187 | 5.0 | 11.0 | 0.00 | 0.00 | 0.00 | 35 | 1013.5 |
| 20260901190937 | 98 | 148 | 4.0 | 9.0 | 0.00 | 0.00 | 0.00 | 35 | 1013.5 |
| 20260901190437 | 98 | 181 | 7.0 | 9.0 | 0.00 | 0.00 | 0.00 | 35 | 1013.5 |
| 20260901185937 | 97 | 151 | 5.0 | 9.0 | 0.00 | 0.00 | 0.00 | 38 | 1013.5 |
| 20260901185437 | 98 | 162 | 4.0 | 9.0 | 0.00 | 0.00 | 0.00 | 37 | 1013.5 |
| 20260901184939 | 99 | 172 | 6.0 | 9.0 | 0.00 | 0.00 | 0.00 | 37 | 1013.5 |
| 20260901184438 | 100 | 163 | 5.0 | 10.0 | 0.00 | 0.00 | 0.00 | 37 | 1013.5 |
| 20260901183937 | 100 | 123 | 3.0 | 7.0 | 0.00 | 0.00 | 0.00 | 36 | 1013.5 |
| 20260901183437 | 100 | 60 | 1.0 | 8.0 | 0.00 | 0.00 | 0.00 | 37 | 1013.5 |
| 20260901182939 | 99 | 13 | 5.0 | 9.0 | 0.00 | 0.00 | 0.00 | 36 | 1013.5 |
| 20260901182437 | 97 | 24 | 4.0 | 9.0 | 0.00 | 0.00 | 0.00 | 38 | 1013.5 |
| 20260901181937 | 97 | 348 | 6.0 | 9.0 | 0.00 | 0.00 | 0.00 | 40 | 1013.5 |
| 20260901181437 | 98 | 293 | 6.0 | 10.0 | 0.00 | 0.00 | 0.00 | 38 | 1013.5 |
| 20260901180937 | 99 | 265 | 11.0 | 17.0 | 0.00 | 0.00 | 0.00 | 38 | 1013.5 |
| 20260901180438 | 100 | 159 | 5.0 | 8.0 | 0.00 | 0.00 | 0.00 | 39 | 1013.5 |
| 20260901175937 | 100 | 156 | 6.0 | 7.0 | 0.00 | 0.00 | 0.00 | 38 | 1013.5 |
| 20260901175439 | 100 | 343 | 3.0 | 9.0 | 0.00 | 0.00 | 0.00 | 38 | 1013.5 |
| 20260901174939 | 101 | 238 | 3.0 | 9.0 | 0.00 | 0.00 | 0.00 | 36 | 1013.5 |
| 20260901174437 | 100 | 167 | 6.0 | 10.0 | 0.00 | 0.00 | 0.00 | 36 | 1013.5 |
| 20260901173938 | 100 | 349 | 7.0 | 10.0 | 0.00 | 0.00 | 0.00 | 36 | 1013.5 |
| 20260901173437 | 98 | 360 | 6.0 | 10.0 | 0.00 | 0.00 | 0.00 | 38 | 1013.5 |
| 20260901172938 | 98 | 18 | 5.0 | 11.0 | 0.00 | 0.00 | 0.00 | 38 | 1013.5 |
| 20260901172437 | 98 | 337 | 4.0 | 9.0 | 0.00 | 0.00 | 0.00 | 38 | 1013.5 |
| 20260901171937 | 98 | 168 | 3.0 | 9.0 | 0.00 | 0.00 | 0.00 | 39 | 1013.5 |
| 20260901171438 | 97 | 337 | 6.0 | 9.0 | 0.00 | 0.00 | 0.00 | 39 | 1013.5 |
| 20260901170937 | 97 | 318 | 5.0 | 11.0 | 0.00 | 0.00 | 0.00 | 39 | 1013.5 |
| 20260901170438 | 97 | 223 | 3.0 | 7.0 | 0.00 | 0.00 | 0.00 | 38 | 1013.5 |
| 20260901165937 | 97 | 207 | 4.0 | 8.0 | 0.00 | 0.00 | 0.00 | 39 | 1013.5 |
| 20260901165438 | 97 | 125 | 2.0 | 6.0 | 0.00 | 0.00 | 0.00 | 40 | 1013.5 |
| 20260901164937 | 97 | 282 | 3.0 | 9.0 | 0.00 | 0.00 | 0.00 | 39 | 1013.5 |
| 20260901164437 | 97 | 315 | 4.0 | 10.0 | 0.00 | 0.00 | 0.00 | 41 | 1013.5 |
| 20260901163938 | 96 | 272 | 5.0 | 7.0 | 0.00 | 0.00 | 0.00 | 42 | 1013.5 |
| 20260901163438 | 96 | 328 | 2.0 | 11.0 | 0.00 | 0.00 | 0.00 | 41 | 1013.5 |
| 20260901162939 | 96 | 299 | 5.0 | 10.0 | 0.00 | 0.00 | 0.00 | 42 | 1013.5 |
| 20260901162438 | 96 | 281 | 3.0 | 9.0 | 0.00 | 0.00 | 0.00 | 41 | 1013.5 |
| 20260901161937 | 96 | 288 | 3.0 | 8.0 | 0.00 | 0.00 | 0.00 | 44 | 1013.5 |
| 20260901161437 | 96 | 246 | 3.0 | 6.0 | 0.00 | 0.00 | 0.00 | 42 | 1013.5 |
| 20260901160937 | 96 | 15 | 3.0 | 9.0 | 0.00 | 0.00 | 0.00 | 43 | 1013.5 |
| 20260901160437 | 94 | 322 | 4.0 | 9.0 | 0.00 | 0.00 | 0.00 | 46 | 1013.5 |
| 20260901155938 | 93 | 332 | 5.0 | 11.0 | 0.00 | 0.00 | 0.00 | 47 | 1013.5 |
| 20260901155437 | 94 | 285 | 3.0 | 11.0 | 0.00 | 0.00 | 0.00 | 48 | 1013.5 |
| 20260901154937 | 95 | 273 | 7.0 | 11.0 | 0.00 | 0.00 | 0.00 | 44 | 1013.5 |
| 20260901154437 | 94 | 221 | 2.0 | 9.0 | 0.00 | 0.00 | 0.00 | 47 | 1013.5 |
| 20260901153939 | 94 | 301 | 4.0 | 9.0 | 0.00 | 0.00 | 0.00 | 46 | 1013.5 |
| 20260901153439 | 94 | 331 | 6.0 | 10.0 | 0.00 | 0.00 | 0.00 | 46 | 1013.5 |
| 20260901152937 | 93 | 347 | 4.0 | 8.0 | 0.00 | 0.00 | 0.00 | 49 | 1013.5 |
| 20260901152438 | 93 | 338 | 4.0 | 8.0 | 0.00 | 0.00 | 0.00 | 49 | 1013.5 |
| 20260901151937 | 93 | 311 | 3.0 | 9.0 | 0.00 | 0.00 | 0.00 | 49 | 1013.5 |
| 20260901150938 | 92 | 341 | 5.0 | 9.0 | 0.00 | 0.00 | 0.00 | 50 | 1013.5 |
| 20260901150442 | 92 | 316 | 5.0 | 9.0 | 0.00 | 0.00 | 0.00 | 50 | 1013.5 |
| 20260901145937 | 91 | 316 | 3.0 | 9.0 | 0.00 | 0.00 | 0.00 | 50 | 1013.5 |
| 20260901145437 | 90 | 312 | 5.0 | 9.0 | 0.00 | 0.00 | 0.00 | 51 | 1013.5 |
| 20260901144938 | 89 | 319 | 4.0 | 8.0 | 0.00 | 0.00 | 0.00 | 53 | 1013.5 |
| 20260901144437 | 89 | 267 | 3.0 | 9.0 | 0.00 | 0.00 | 0.00 | 53 | 1013.5 |
| 20260901143937 | 89 | 257 | 3.0 | 11.0 | 0.00 | 0.00 | 0.00 | 54 | 1013.5 |
| 20260901143437 | 89 | 261 | 5.0 | 9.0 | 0.00 | 0.00 | 0.00 | 53 | 1013.5 |
| 20260901142937 | 88 | 303 | 3.0 | 11.0 | 0.00 | 0.00 | 0.00 | 56 | 1013.5 |
| 20260901142437 | 88 | 259 | 2.0 | 7.0 | 0.00 | 0.00 | 0.00 | 56 | 1013.5 |
| 20260901141937 | 87 | 303 | 3.0 | 7.0 | 0.00 | 0.00 | 0.00 | 58 | 1013.5 |
| 20260901141437 | 87 | 296 | 3.0 | 6.0 | 0.00 | 0.00 | 0.00 | 58 | 1013.5 |
| 20260901140938 | 86 | 322 | 2.0 | 6.0 | 0.00 | 0.00 | 0.00 | 59 | 1013.5 |
| 20260901140439 | 85 | 269 | 2.0 | 4.0 | 0.00 | 0.00 | 0.00 | 62 | 1013.5 |
| 20260901135938 | 85 | 253 | 2.0 | 4.0 | 0.00 | 0.00 | 0.00 | 62 | 1013.5 |
| 20260901135438 | 84 | 280 | 2.0 | 4.0 | 0.00 | 0.00 | 0.00 | 63 | 1013.5 |
| 20260901134939 | 84 | 211 | 2.0 | 5.0 | 0.00 | 0.00 | 0.00 | 63 | 1013.5 |
| 20260901134439 | 83 | 242 | 2.0 | 3.0 | 0.00 | 0.00 | 0.00 | 65 | 1013.5 |
| 20260901133938 | 82 | 298 | 2.0 | 5.0 | 0.00 | 0.00 | 0.00 | 67 | 1013.5 |
| 20260901133437 | 81 | 297 | 2.0 | 5.0 | 0.00 | 0.00 | 0.00 | 69 | 1013.5 |
| 20260901132938 | 81 | 305 | 2.0 | 6.0 | 0.00 | 0.00 | 0.00 | 70 | 1013.5 |
| 20260901132437 | 80 | 311 | 3.0 | 6.0 | 0.00 | 0.00 | 0.00 | 71 | 1013.5 |
| 20260901131938 | 80 | 277 | 3.0 | 4.0 | 0.00 | 0.00 | 0.00 | 71 | 1013.5 |
| 20260901131442 | 81 | 274 | 2.0 | 4.0 | 0.00 | 0.00 | 0.00 | 70 | 1013.5 |
| 20260901130937 | 81 | 310 | 1.0 | 5.0 | 0.00 | 0.00 | 0.00 | 69 | 1013.5 |
| 20260901130443 | 80 | 306 | 2.0 | 5.0 | 0.00 | 0.00 | 0.00 | 69 | 1013.5 |
| 20260901125938 | 80 | 280 | 2.0 | 4.0 | 0.00 | 0.00 | 0.00 | 70 | 1013.5 |
| 20260901125438 | 78 | 251 | 1.0 | 4.0 | 0.00 | 0.00 | 0.00 | 71 | 1013.5 |
| 20260901124938 | 77 | 288 | 1.0 | 3.0 | 0.00 | 0.00 | 0.00 | 75 | 1013.5 |
| 20260901124437 | 75 | 300 | 1.0 | 4.0 | 0.00 | 0.00 | 0.00 | 77 | 1013.5 |
| 20260901123951 | 74 | 293 | 1.0 | 4.0 | 0.00 | 0.00 | 0.00 | 80 | 1013.5 |
| 20260901123437 | 73 | 318 | 2.0 | 4.0 | 0.00 | 0.00 | 0.00 | 82 | 1013.5 |
| 20260901122946 | 72 | 304 | 2.0 | 4.0 | 0.00 | 0.00 | 0.00 | 82 | 1013.5 |
| 20260901122439 | 71 | 302 | 1.0 | 4.0 | 0.00 | 0.00 | 0.00 | 84 | 1013.5 |
| 20260901121937 | 71 | 296 | 2.0 | 4.0 | 0.00 | 0.00 | 0.00 | 85 | 1013.5 |
| 20260901121437 | 70 | 281 | 1.0 | 4.0 | 0.00 | 0.00 | 0.00 | 86 | 1013.5 |
| 20260901120937 | 70 | 315 | 2.0 | 5.0 | 0.00 | 0.00 | 0.00 | 86 | 1013.5 |
| 20260901120438 | 70 | 317 | 3.0 | 5.0 | 0.00 | 0.00 | 0.00 | 86 | 1013.5 |
| 20260901115938 | 70 | 288 | 1.0 | 5.0 | 0.00 | 0.00 | 0.00 | 86 | 1013.5 |
| 20260901115437 | 70 | 311 | 3.0 | 5.0 | 0.00 | 0.00 | 0.00 | 86 | 1013.5 |
| 20260901114938 | 70 | 312 | 2.0 | 5.0 | 0.00 | 0.00 | 0.00 | 86 | 1013.5 |
| 20260901114437 | 70 | 290 | 1.0 | 4.0 | 0.00 | 0.00 | 0.00 | 85 | 1013.5 |
| 20260901113937 | 70 | 302 | 2.0 | 5.0 | 0.00 | 0.00 | 0.00 | 86 | 1013.5 |
| 20260901113438 | 70 | 316 | 3.0 | 4.0 | 0.00 | 0.00 | 0.00 | 85 | 1013.5 |
| 20260901112937 | 70 | 305 | 1.0 | 4.0 | 0.00 | 0.00 | 0.00 | 85 | 1013.5 |
| 20260901112437 | 70 | 314 | 3.0 | 5.0 | 0.00 | 0.00 | 0.00 | 86 | 1013.5 |
| 20260901111937 | 70 | 322 | 4.0 | 4.0 | 0.00 | 0.00 | 0.00 | 85 | 1013.5 |
| 20260901111438 | 70 | 269 | 1.0 | 5.0 | 0.00 | 0.00 | 0.00 | 84 | 1013.5 |
| 20260901110938 | 70 | 315 | 3.0 | 5.0 | 0.00 | 0.00 | 0.00 | 84 | 1013.5 |
| 20260901110437 | 70 | 302 | 2.0 | 5.0 | 0.00 | 0.00 | 0.00 | 83 | 1013.5 |
| 20260901105937 | 70 | 313 | 3.0 | 4.0 | 0.00 | 0.00 | 0.00 | 84 | 1013.5 |
| 20260901105437 | 70 | 317 | 2.0 | 4.0 | 0.00 | 0.00 | 0.00 | 84 | 1013.5 |
| 20260901104937 | 71 | 313 | 3.0 | 5.0 | 0.00 | 0.00 | 0.00 | 83 | 1013.5 |
| 20260901104437 | 71 | 313 | 3.0 | 4.0 | 0.00 | 0.00 | 0.00 | 82 | 1013.5 |
| 20260901103937 | 71 | 308 | 2.0 | 5.0 | 0.00 | 0.00 | 0.00 | 82 | 1013.5 |
| 20260901103437 | 71 | 316 | 3.0 | 5.0 | 0.00 | 0.00 | 0.00 | 83 | 1013.5 |
| 20260901102937 | 71 | 314 | 3.0 | 4.0 | 0.00 | 0.00 | 0.00 | 83 | 1013.5 |
| 20260901102438 | 71 | 316 | 3.0 | 5.0 | 0.00 | 0.00 | 0.00 | 82 | 1013.5 |
| 20260901101937 | 71 | 311 | 2.0 | 5.0 | 0.00 | 0.00 | 0.00 | 82 | 1013.5 |
| 20260901101437 | 71 | 310 | 3.0 | 5.0 | 0.00 | 0.00 | 0.00 | 82 | 1013.5 |
| 20260901100938 | 71 | 313 | 3.0 | 4.0 | 0.00 | 0.00 | 0.00 | 82 | 1013.5 |
| 20260901100437 | 71 | 309 | 2.0 | 5.0 | 0.00 | 0.00 | 0.00 | 82 | 1013.5 |
| 20260901095937 | 71 | 317 | 3.0 | 5.0 | 0.00 | 0.00 | 0.00 | 82 | 1013.5 |
| 20260901095437 | 71 | 310 | 2.0 | 4.0 | 0.00 | 0.00 | 0.00 | 82 | 1013.5 |
| 20260901094937 | 71 | 317 | 2.0 | 4.0 | 0.00 | 0.00 | 0.00 | 82 | 1013.5 |
| 20260901094437 | 71 | 284 | 1.0 | 4.0 | 0.00 | 0.00 | 0.00 | 81 | 1013.5 |
| 20260901093937 | 71 | 316 | 3.0 | 5.0 | 0.00 | 0.00 | 0.00 | 81 | 1013.5 |
| 20260901093438 | 71 | 316 | 3.0 | 5.0 | 0.00 | 0.00 | 0.00 | 81 | 1013.5 |
| 20260901092937 | 71 | 316 | 2.0 | 5.0 | 0.00 | 0.00 | 0.00 | 80 | 1013.5 |
| 20260901092438 | 71 | 314 | 3.0 | 5.0 | 0.00 | 0.00 | 0.00 | 80 | 1013.5 |
| 20260901091937 | 71 | 319 | 4.0 | 5.0 | 0.00 | 0.00 | 0.00 | 80 | 1013.5 |
| 20260901091437 | 71 | 302 | 2.0 | 5.0 | 0.00 | 0.00 | 0.00 | 79 | 1013.5 |
| 20260901090937 | 71 | 316 | 3.0 | 5.0 | 0.00 | 0.00 | 0.00 | 80 | 1013.5 |
| 20260901090437 | 71 | 313 | 3.0 | 4.0 | 0.00 | 0.00 | 0.00 | 79 | 1013.5 |
| 20260901085937 | 71 | 307 | 2.0 | 4.0 | 0.00 | 0.00 | 0.00 | 78 | 1013.5 |
| 20260901085437 | 71 | 310 | 2.0 | 5.0 | 0.00 | 0.00 | 0.00 | 78 | 1013.5 |
| 20260901084937 | 71 | 308 | 3.0 | 5.0 | 0.00 | 0.00 | 0.00 | 78 | 1013.5 |
| 20260901084437 | 72 | 305 | 2.0 | 4.0 | 0.00 | 0.00 | 0.00 | 78 | 1013.5 |
| 20260901083937 | 72 | 320 | 3.0 | 4.0 | 0.00 | 0.00 | 0.00 | 78 | 1013.5 |
| 20260901083437 | 72 | 315 | 3.0 | 5.0 | 0.00 | 0.00 | 0.00 | 77 | 1013.5 |
| 20260901082938 | 72 | 300 | 2.0 | 6.0 | 0.00 | 0.00 | 0.00 | 77 | 1013.5 |
| 20260901082437 | 72 | 317 | 3.0 | 5.0 | 0.00 | 0.00 | 0.00 | 77 | 1013.5 |
| 20260901081937 | 72 | 309 | 3.0 | 5.0 | 0.00 | 0.00 | 0.00 | 77 | 1013.5 |
| 20260901081437 | 72 | 320 | 3.0 | 5.0 | 0.00 | 0.00 | 0.00 | 77 | 1013.5 |
| 20260901080937 | 72 | 314 | 3.0 | 5.0 | 0.00 | 0.00 | 0.00 | 76 | 1013.5 |
| 20260901080437 | 72 | 309 | 2.0 | 5.0 | 0.00 | 0.00 | 0.00 | 75 | 1013.5 |
| 20260901075937 | 72 | 318 | 3.0 | 4.0 | 0.00 | 0.00 | 0.00 | 76 | 1013.5 |
| 20260901075437 | 72 | 311 | 2.0 | 4.0 | 0.00 | 0.00 | 0.00 | 75 | 1013.5 |
| 20260901074937 | 72 | 315 | 2.0 | 5.0 | 0.00 | 0.00 | 0.00 | 75 | 1013.5 |
| 20260901074437 | 72 | 307 | 2.0 | 4.0 | 0.00 | 0.00 | 0.00 | 75 | 1013.5 |
| 20260901073938 | 73 | 315 | 2.0 | 4.0 | 0.00 | 0.00 | 0.00 | 75 | 1013.5 |
| 20260901073437 | 73 | 323 | 3.0 | 4.0 | 0.00 | 0.00 | 0.00 | 74 | 1013.5 |
| 20260901072937 | 73 | 305 | 2.0 | 5.0 | 0.00 | 0.00 | 0.00 | 74 | 1013.5 |
| 20260901072437 | 73 | 313 | 3.0 | 5.0 | 0.00 | 0.00 | 0.00 | 74 | 1013.5 |
| 20260901071937 | 73 | 310 | 2.0 | 4.0 | 0.00 | 0.00 | 0.00 | 73 | 1013.5 |
| 20260901071437 | 73 | 322 | 4.0 | 5.0 | 0.00 | 0.00 | 0.00 | 74 | 1013.5 |
| 20260901070939 | 73 | 316 | 3.0 | 5.0 | 0.00 | 0.00 | 0.00 | 73 | 1013.5 |
| 20260901070437 | 73 | 309 | 2.0 | 4.0 | 0.00 | 0.00 | 0.00 | 74 | 1013.5 |
| 20260901065937 | 73 | 314 | 2.0 | 5.0 | 0.00 | 0.00 | 0.00 | 73 | 1013.5 |
| 20260901065439 | 73 | 317 | 3.0 | 5.0 | 0.00 | 0.00 | 0.00 | 73 | 1013.5 |
| 20260901064937 | 73 | 314 | 2.0 | 5.0 | 0.00 | 0.00 | 0.00 | 73 | 1013.5 |
| 20260901064437 | 73 | 314 | 3.0 | 5.0 | 0.00 | 0.00 | 0.00 | 73 | 1013.5 |
| 20260901063937 | 73 | 319 | 3.0 | 5.0 | 0.00 | 0.00 | 0.00 | 73 | 1013.5 |
| 20260901063437 | 73 | 319 | 4.0 | 5.0 | 0.00 | 0.00 | 0.00 | 73 | 1013.5 |
| 20260901062942 | 73 | 317 | 2.0 | 5.0 | 0.00 | 0.00 | 0.00 | 72 | 1013.5 |
| 20260901062437 | 73 | 321 | 4.0 | 5.0 | 0.00 | 0.00 | 0.00 | 72 | 1013.5 |
| 20260901061937 | 73 | 304 | 2.0 | 4.0 | 0.00 | 0.00 | 0.00 | 71 | 1013.5 |
| 20260901061437 | 73 | 315 | 3.0 | 5.0 | 0.00 | 0.00 | 0.00 | 72 | 1013.5 |
| 20260901060937 | 74 | 324 | 4.0 | 4.0 | 0.00 | 0.00 | 0.00 | 71 | 1013.5 |
| 20260901060437 | 74 | 315 | 3.0 | 5.0 | 0.00 | 0.00 | 0.00 | 71 | 1013.5 |
| 20260901055938 | 74 | 317 | 2.0 | 5.0 | 0.00 | 0.00 | 0.00 | 70 | 1013.5 |
| 20260901055437 | 74 | 317 | 3.0 | 5.0 | 0.00 | 0.00 | 0.00 | 70 | 1013.5 |
| 20260901054937 | 74 | 317 | 3.0 | 5.0 | 0.00 | 0.00 | 0.00 | 70 | 1013.5 |
| 20260901054437 | 74 | 311 | 2.0 | 4.0 | 0.00 | 0.00 | 0.00 | 69 | 1013.5 |
| 20260901053942 | 75 | 305 | 2.0 | 4.0 | 0.00 | 0.00 | 0.00 | 69 | 1013.5 |
| 20260901053437 | 75 | 324 | 2.0 | 4.0 | 0.00 | 0.00 | 0.00 | 69 | 1013.5 |
| 20260901052937 | 75 | 330 | 3.0 | 4.0 | 0.00 | 0.00 | 0.00 | 68 | 1013.5 |
| 20260901052437 | 75 | 316 | 2.0 | 4.0 | 0.00 | 0.00 | 0.00 | 68 | 1013.5 |
| 20260901051937 | 75 | 317 | 2.0 | 4.0 | 0.00 | 0.00 | 0.00 | 68 | 1013.5 |
| 20260901051437 | 76 | 313 | 2.0 | 4.0 | 0.00 | 0.00 | 0.00 | 68 | 1013.5 |
| 20260901050937 | 76 | 311 | 2.0 | 4.0 | 0.00 | 0.00 | 0.00 | 68 | 1013.5 |
| 20260901050437 | 76 | 306 | 2.0 | 4.0 | 0.00 | 0.00 | 0.00 | 68 | 1013.5 |
| 20260901045938 | 76 | 311 | 2.0 | 5.0 | 0.00 | 0.00 | 0.00 | 67 | 1013.5 |
| 20260901045437 | 76 | 309 | 3.0 | 5.0 | 0.00 | 0.00 | 0.00 | 66 | 1013.5 |
| 20260901044937 | 76 | 314 | 2.0 | 5.0 | 0.00 | 0.00 | 0.00 | 66 | 1013.5 |
| 20260901044437 | 76 | 324 | 3.0 | 5.0 | 0.00 | 0.00 | 0.00 | 67 | 1013.5 |
| 20260901043937 | 77 | 317 | 3.0 | 4.0 | 0.00 | 0.00 | 0.00 | 66 | 1013.5 |
| 20260901043437 | 77 | 324 | 3.0 | 4.0 | 0.00 | 0.00 | 0.00 | 66 | 1013.5 |
| 20260901042938 | 77 | 316 | 3.0 | 4.0 | 0.00 | 0.00 | 0.00 | 66 | 1013.5 |
| 20260901042439 | 77 | 318 | 2.0 | 4.0 | 0.00 | 0.00 | 0.00 | 65 | 1013.5 |
| 20260901041937 | 77 | 322 | 3.0 | 5.0 | 0.00 | 0.00 | 0.00 | 65 | 1013.5 |
| 20260901041437 | 77 | 313 | 2.0 | 5.0 | 0.00 | 0.00 | 0.00 | 65 | 1013.5 |
| 20260901040937 | 78 | 328 | 3.0 | 5.0 | 0.00 | 0.00 | 0.00 | 65 | 1013.5 |
| 20260901040437 | 78 | 329 | 4.0 | 5.0 | 0.00 | 0.00 | 0.00 | 65 | 1013.5 |
| 20260901035937 | 78 | 338 | 3.0 | 5.0 | 0.00 | 0.00 | 0.00 | 64 | 1013.5 |
| 20260901035437 | 78 | 333 | 3.0 | 5.0 | 0.00 | 0.00 | 0.00 | 63 | 1013.5 |
| 20260901034938 | 78 | 330 | 4.0 | 6.0 | 0.00 | 0.00 | 0.00 | 63 | 1013.5 |
| 20260901034437 | 79 | 339 | 4.0 | 5.0 | 0.00 | 0.00 | 0.00 | 63 | 1013.5 |
| 20260901033937 | 79 | 334 | 4.0 | 5.0 | 0.00 | 0.00 | 0.00 | 62 | 1013.5 |
| 20260901033437 | 79 | 345 | 4.0 | 5.0 | 0.00 | 0.00 | 0.00 | 61 | 1013.5 |
| 20260901032937 | 80 | 350 | 4.0 | 5.0 | 0.00 | 0.00 | 0.00 | 62 | 1013.5 |